Location: Riverside
(39.1734°N, 77.8561°W)
Time: 17:56:49
(UTC+00:00)

BEESAT 3 - Pass Details

Date: 29 May 2019
Orbit: 484 x 526 km, 64.9° (Epoch: 24 June)

Event Time Altitude Azimuth Distance (km) Brightness Sun altitude
Rises 04:23:31 0° 336° (NNW) 2,663 ? -28.3°
Reaches altitude 10° 04:25:49 10° 344° (NNW) 1,773 ? -28.4°
Enters shadow 04:28:22 30° 15° (NNE) 959 ? -28.5°
